1534978800.43,27725,21.94,74608.3,5.25,-7.27,-11.19,0,*40
1534978801.63,27726,21.94,74608.3,5.25,-7.15,-10.97,0,*45
1534978802.85,27727,21.94,74612.5,5.25,-7.15,-10.79,0,*44
1534978804.06,27728,21.94,74612.0,5.29,-7.31,-10.85,0,*42
1534978805.29,27729,21.94,74610.0,5.25,-7.15,-10.67,0,*45
1534978806.51,27730,21.94,74614.5,5.25,-6.97,-10.49,0,*4A
1534978807.72,27731,21.94,74610.8,5.25,-6.77,-10.35,0,*4E
1534978808.94,27732,21.94,74612.8,5.25,-6.63,-10.27,0,*4B
1534978810.14,27733,21.94,74614.5,5.25,-6.59,-10.23,0,*47
1534978811.33,27734,21.94,74608.8,5.25,-6.43,-10.09,0,*43
1534978812.54,27735,21.94,74614.5,5.25,-6.43,-10.15,0,*4F
1534978813.73,27736,21.94,74612.3,5.25,-6.31,-10.23,0,*4C
1534978814.96,27737,21.94,74612.8,5.25,-6.23,-10.27,0,*4A
1534978816.15,27738,21.94,74614.3,5.25,-6.05,-10.23,0,*45
1534978817.37,27739,21.94,74614.8,5.23,-5.89,-10.31,0,*46
1534978818.58,27740,21.94,74614.3,5.25,-5.55,-10.27,0,*48
1534978819.78,27741,21.94,74612.8,5.25,-5.55,-10.49,0,*41
1534978821.02,27742,21.94,74612.8,5.23,-5.61,-10.79,0,*40
1534978822.23,27743,21.94,74612.8,5.25,-5.55,-10.89,0,*4F
1534978823.42,27744,21.94,74614.5,5.25,-5.43,-10.97,0,*40
1534978824.61,27745,21.94,74614.5,5.23,-5.43,-11.23,0,*49
1534978825.83,27746,21.94,74614.3,5.25,-5.19,-11.19,0,*4A
1534978827.05,27747,21.94,74616.3,5.25,-5.27,-11.23,0,*4F
1534978828.28,27748,21.94,74616.0,5.23,-5.11,-11.37,0,*46
1534978829.5,27749,21.94,74614.5,5.25,-5.15,-11.45,0,*40
1534978830.75,27750,21.94,74612.3,5.25,-5.15,-11.59,0,*45
1534978831.99,27751,21.94,74616.0,5.23,-5.07,-11.67,0,*4C
1534978833.21,27752,21.94,74616.3,5.23,-4.99,-11.67,0,*49
1534978834.45,27753,21.94,74616.3,5.25,-5.07,-11.77,0,*49
1534978835.69,27754,21.94,74616.8,5.25,-4.89,-11.77,0,*49
1534978836.93,27755,21.94,74618.0,5.25,-4.89,-11.81,0,*41
1534978838.14,27756,21.94,74616.3,5.25,-4.93,-12.03,0,*40
1534978839.38,27757,21.94,74618.0,5.25,-4.93,-12.07,0,*45
1534978840.61,27758,21.94,74618.8,5.25,-5.03,-12.21,0,*46
1534978841.82,27759,21.94,74618.5,5.23,-4.93,-12.21,0,*49
1534978843.05,27760,21.94,74620.8,5.23,-4.81,-12.11,0,*43
1534978844.24,27761,21.94,74622.3,5.23,-4.99,-12.25,0,*4C
1534978845.47,27762,21.94,74622.3,5.23,-4.93,-12.11,0,*42
1534978846.66,27763,21.94,74622.8,5.23,-4.99,-12.25,0,*4E
1534978847.88,27764,21.94,74620.0,5.23,-5.23,-12.39,0,*44
1534978849.12,27765,21.94,74620.3,5.23,-5.19,-12.35,0,*40
1534978850.37,27766,21.94,74622.3,5.23,-5.07,-12.11,0,*4A
1534978851.6,27767,21.94,74620.0,5.23,-4.93,-11.97,0,*4A
1534978852.82,27768,21.94,74616.3,5.25,-4.99,-12.07,0,*43
1534978854.03,27769,21.94,74620.0,5.23,-4.99,-12.07,0,*44
1534978855.24,27770,21.94,74624.0,5.23,-4.99,-11.97,0,*46
1534978856.47,27771,21.94,74620.5,5.23,-4.93,-11.93,0,*49
1534978857.69,27772,21.94,74624.5,5.23,-5.15,-12.25,0,*4B
1534978858.92,27773,21.94,74620.0,5.25,-5.07,-12.21,0,*4B
1534978860.13,27774,21.94,74620.5,5.23,-5.11,-12.25,0,*49
1534978861.35,27775,21.94,74622.0,5.23,-5.07,-12.25,0,*4F
1534978862.54,27776,21.94,74620.0,5.23,-4.99,-12.21,0,*4E
1534978863.76,27777,21.94,74616.3,5.23,-5.07,-12.25,0,*4D
1534978864.98,27778,21.94,74618.8,5.23,-5.23,-12.25,0,*44
1534978866.16,27779,21.94,74618.0,5.23,-4.99,-12.21,0,*41
1534978867.38,27780,21.94,74616.3,5.25,-4.93,-12.03,0,*4B
1534978868.63,27781,21.94,74614.8,5.25,-5.07,-12.07,0,*42
1534978869.87,27782,21.94,74616.0,5.25,-4.93,-11.93,0,*43
1534978871.09,27783,21.94,74618.0,5.25,-5.27,-12.21,0,*46
1534978872.31,27784,21.94,74614.5,5.25,-5.39,-12.15,0,*49
1534978873.52,27785,21.94,74614.5,5.25,-5.39,-12.15,0,*48
1534978874.72,27786,21.94,74612.8,5.23,-5.55,-12.21,0,*40
1534978875.97,27787,21.94,74614.3,5.25,-5.69,-12.35,0,*4D
1534978877.2,27788,21.94,74614.3,5.25,-5.85,-12.43,0,*41
1534978878.39,27789,21.94,74612.0,5.23,-6.01,-12.39,0,*44
1534978879.59,27790,21.94,74616.3,5.25,-5.97,-12.29,0,*47
1534978880.79,27791,21.94,74612.8,5.23,-6.09,-12.25,0,*48
1534978881.99,27792,21.94,74614.0,5.25,-6.09,-12.03,0,*49
1534978883.24,27793,21.94,74614.8,5.25,-6.19,-11.89,0,*48
1534978884.47,27794,21.94,74614.8,5.23,-6.27,-11.85,0,*48
1534978885.72,27795,21.94,74614.0,5.23,-6.27,-11.63,0,*41
1534978886.93,27796,21.94,74614.5,5.23,-6.13,-11.55,0,*40
1534978888.15,27797,21.94,74614.8,5.23,-6.35,-11.51,0,*41
1534978889.39,27798,21.94,74614.5,5.23,-6.27,-11.51,0,*4D
1534978890.59,27799,21.94,74616.5,5.25,-6.35,-11.45,0,*4C
1534978891.81,27800,21.94,74618.3,5.23,-6.47,-11.55,0,*41
1534978893.02,27801,21.94,74618.8,5.23,-6.47,-11.55,0,*40
1534978894.27,27802,21.94,74616.5,5.25,-6.19,-11.37,0,*4A
1534978895.5,27803,21.94,74618.8,5.23,-6.23,-11.37,0,*44
1534978896.74,27804,21.94,74618.0,5.23,-6.27,-11.37,0,*47
1534978897.98,27805,21.94,74618.3,5.23,-6.23,-11.37,0,*42
1534978899.22,27806,21.94,74622.0,5.25,-6.19,-11.37,0,*4E
1534978900.42,27807,21.94,74616.5,5.25,-6.31,-11.45,0,*40
1534978901.64,27808,21.94,74616.3,5.25,-6.23,-11.45,0,*4C
1534978902.83,27809,21.94,74616.5,5.25,-6.31,-11.45,0,*4E
1534978904.05,27810,21.94,74616.3,5.25,-6.43,-11.59,0,*4E
1534978905.28,27811,21.94,74620.5,5.25,-6.43,-11.63,0,*46
1534978906.52,27812,21.94,74616.8,5.23,-6.63,-11.85,0,*49
1534978907.73,27813,21.94,74618.0,5.23,-6.59,-11.97,0,*42
1534978908.94,27814,21.94,74618.3,5.23,-6.69,-11.97,0,*46
1534978910.14,27815,21.94,74618.8,5.23,-6.77,-12.21,0,*46
1534978911.35,27816,21.94,74612.3,5.23,-6.69,-12.11,0,*49
1534978912.59,27817,21.94,74616.8,5.21,-6.69,-12.11,0,*4A
1534978913.83,27818,21.94,74616.5,5.21,-6.59,-11.97,0,*4B
1534978915.07,27819,21.94,74618.8,5.23,-6.63,-11.97,0,*41
1534978916.28,27820,21.94,74614.5,5.23,-6.47,-11.81,0,*4A
1534978917.51,27821,21.94,74616.3,5.21,-6.47,-11.81,0,*49
1534978918.75,27822,21.94,74618.0,5.21,-6.39,-11.67,0,*4B
1534978919.99,27823,21.94,74614.5,5.21,-6.39,-11.77,0,*4B
1534978921.23,27824,21.94,74618.3,5.21,-6.35,-11.77,0,*40
1534978922.46,27825,21.94,74614.8,5.23,-6.27,-11.77,0,*40
1534978923.7,27826,21.94,74614.0,5.23,-6.23,-11.81,0,*4E
1534978924.91,27827,21.94,74616.8,5.25,-6.31,-11.81,0,*4A
1534978926.13,27828,21.94,74618.5,5.23,-6.39,-11.93,0,*48
1534978927.35,27829,21.94,74614.5,5.23,-6.51,-12.11,0,*4E
1534978928.57,27830,21.94,74616.8,5.23,-6.47,-12.07,0,*46
1534978929.79,27831,21.94,74618.0,5.23,-6.35,-11.85,0,*4B
1534978931.01,27832,21.94,74616.5,5.23,-6.39,-11.93,0,*43
1534978932.24,27833,21.94,74618.5,5.23,-6.23,-11.77,0,*43
1534978933.46,27834,21.94,74616.5,5.23,-6.39,-11.85,0,*42
1534978934.68,27835,21.94,74616.5,5.23,-6.35,-11.67,0,*43
1534978935.9,27836,21.94,74618.0,5.25,-6.35,-11.73,0,*43
1534978937.12,27837,21.94,74616.8,5.23,-6.47,-11.67,0,*44
1534978938.34,27838,21.94,74620.3,5.23,-6.39,-11.67,0,*42
1534978939.55,27839,21.94,74616.3,5.23,-6.39,-11.67,0,*43
1534978940.77,27840,21.94,74618.8,5.23,-6.35,-11.55,0,*40
1534978942.01,27841,21.94,74618.8,5.23,-6.27,-11.55,0,*42
1534978943.25,27842,21.94,74622.0,5.23,-6.23,-11.55,0,*45
1534978944.47,27843,21.94,74620.0,5.25,-6.05,-11.33,0,*46
1534978945.73,27844,21.94,74616.3,5.21,-5.89,-11.29,0,*49
1534978946.98,27845,21.94,74620.0,5.19,-5.77,-11.29,0,*42
1534978948.2,27846,21.94,74618.0,5.21,-5.55,-11.01,0,*40
1534978949.39,27847,21.94,74616.5,5.19,-5.35,-10.85,0,*41
1534978950.64,27848,21.94,74620.5,5.19,-5.15,-10.75,0,*43
1534978951.88,27849,21.94,74620.0,5.21,-4.89,-10.45,0,*4E
1534978953.1,27850,21.94,74620.5,5.19,-4.69,-10.35,0,*44
1534978954.31,27851,21.94,74618.5,5.21,-4.45,-10.19,0,*4E
1534978955.51,27852,21.94,74618.5,5.19,-4.21,-10.05,0,*49
1534978956.71,27853,21.94,74616.8,5.19,-3.95,-9.93,0,*77
1534978957.92,27854,21.94,74620.3,5.19,-3.83,-10.01,0,*44
1534978959.17,27855,21.94,74620.8,5.21,-3.67,-10.15,0,*41
1534978960.39,27856,21.94,74622.3,5.19,-3.67,-10.15,0,*49
1534978961.6,27857,21.94,74620.8,5.21,-3.31,-9.97,0,*72
1534978962.8,27858,21.94,74620.0,5.19,-3.31,-10.09,0,*49
1534978964.02,27859,21.94,74622.3,5.21,-2.99,-10.09,0,*40
1534978965.22,27860,21.94,74622.3,5.19,-2.79,-10.01,0,*47
1534978966.44,27861,21.94,74618.5,5.19,-2.67,-10.15,0,*4C
1534978967.69,27862,21.94,74622.5,5.21,-2.67,-10.19,0,*48
1534978968.9,27863,21.94,74620.0,5.21,-2.79,-10.57,0,*4C
1534978970.11,27864,21.94,74626.5,5.21,-2.87,-10.85,0,*45
1534978971.32,27865,21.94,74624.5,5.21,-2.99,-11.01,0,*46
1534978972.53,27866,21.94,74622.3,5.21,-2.87,-10.85,0,*47
1534978973.73,27867,21.94,74624.5,5.19,-2.95,-11.15,0,*46
1534978974.94,27868,21.94,74620.5,5.21,-2.91,-11.23,0,*43
1534978976.14,27869,21.94,74620.8,5.19,-3.07,-11.41,0,*43
1534978977.38,27870,21.94,74624.0,5.21,-3.11,-11.51,0,*46
1534978978.62,27871,21.94,74620.8,5.21,-3.15,-11.51,0,*43
1534978979.84,27872,21.94,74624.3,5.19,-3.19,-11.55,0,*43
1534978981.08,27873,21.94,74624.8,5.21,-3.15,-11.51,0,*41
1534978982.32,27874,21.94,74626.3,5.21,-3.15,-11.51,0,*46
1534978983.56,27875,21.94,74626.3,5.21,-3.15,-11.51,0,*47
1534978984.78,27876,21.94,74626.5,5.21,-3.11,-11.41,0,*41
1534978985.99,27877,21.94,74626.3,5.19,-3.19,-11.33,0,*46
1534978987.23,27878,21.94,74626.8,5.21,-3.03,-11.29,0,*42
1534978988.43,27879,21.94,74624.3,5.19,-3.03,-11.15,0,*47
1534978989.63,27880,21.94,74624.5,5.19,-2.95,-11.15,0,*4F
1534978990.84,27881,21.94,74624.3,5.21,-2.91,-11.11,0,*45
1534978992.05,27882,21.94,74626.3,5.21,-2.99,-11.23,0,*4F
1534978993.26,27883,21.94,74626.3,5.21,-2.91,-11.11,0,*47
1534978994.47,27884,21.94,74626.3,5.21,-2.91,-11.15,0,*44
1534978995.71,27885,21.94,74622.5,5.21,-3.11,-11.37,0,*4C
1534978996.92,27886,21.94,74622.5,5.19,-3.03,-11.33,0,*43
1534978998.13,27887,21.94,74624.0,5.21,-2.79,-11.11,0,*45
1534978999.35,27888,21.94,74620.3,5.21,-2.87,-11.23,0,*4A
1534979000.56,27889,21.94,74620.8,5.23,-2.91,-11.29,0,*44
1534979001.77,27890,21.94,74618.8,5.23,-3.03,-11.37,0,*49
1534979002.97,27891,21.94,74622.8,5.23,-3.03,-11.41,0,*49
1534979004.16,27892,21.94,74620.5,5.23,-3.03,-11.41,0,*4A
1534979005.38,27893,21.94,74622.3,5.23,-3.15,-11.51,0,*4D
1534979006.61,27894,21.94,74622.3,5.21,-3.23,-11.51,0,*4D
1534979007.81,27895,21.94,74622.5,5.23,-3.15,-11.41,0,*4A
1534979009.0,27896,21.94,74622.0,5.23,-3.11,-11.23,0,*49
1534979010.22,27897,21.94,74624.5,5.23,-3.27,-11.29,0,*47
1534979011.44,27898,21.94,74616.5,5.23,-3.27,-11.29,0,*48
1534979012.64,27899,21.94,74620.5,5.23,-3.15,-10.93,0,*48
1534979013.84,27900,21.94,74618.8,5.23,-3.27,-11.01,0,*42
1534979015.03,27901,21.94,74616.8,5.23,-3.39,-11.11,0,*4D
1534979016.25,27902,21.94,74620.0,5.23,-3.55,-11.01,0,*45
1534979017.49,27903,21.94,74618.8,5.23,-3.43,-10.79,0,*4D
1534979018.71,27904,21.94,74618.0,5.23,-3.43,-10.57,0,*46
1534979019.93,27905,21.94,74622.8,5.23,-3.51,-10.57,0,*44
1534979021.18,27906,21.94,74618.0,5.23,-3.55,-10.41,0,*44
1534979022.38,27907,21.94,74618.0,5.23,-3.39,-10.19,0,*42
1534979023.6,27908,21.94,74616.3,5.23,-3.51,-10.19,0,*43
1534979024.83,27909,21.94,74618.3,5.23,-3.47,-10.01,0,*4C
1534979026.04,27910,21.94,74618.0,5.23,-3.31,-9.61,0,*7B
1534979027.25,27911,21.94,74618.8,5.23,-3.23,-9.45,0,*7F
1534979028.43,27912,21.94,74618.0,5.23,-3.15,-9.31,0,*7A
1534979029.62,27913,21.94,74614.8,5.23,-3.15,-9.31,0,*7B
1534979030.8,27914,21.94,74616.3,5.23,-3.15,-9.31,0,*7C
1534979031.99,27915,21.94,74614.8,5.23,-3.15,-9.19,0,*77
1534979033.17,27916,21.94,74616.5,5.25,-3.15,-9.23,0,*7B
1534979034.36,27917,21.94,74612.8,5.23,-3.11,-9.19,0,*71
1534979035.57,27918,21.94,74614.8,5.23,-2.99,-9.15,0,*73
1534979036.75,27919,21.94,74616.5,5.23,-2.91,-9.05,0,*7B
1534979037.96,27920,21.94,74618.0,5.23,-2.67,-9.01,0,*7C
1534979039.18,27921,21.94,74618.5,5.23,-2.63,-8.89,0,*78
1534979040.39,27922,21.94,74616.0,5.25,-2.47,-8.71,0,*7C
1534979041.59,27923,21.94,74616.3,5.23,-2.47,-8.67,0,*7C
1534979042.77,27924,21.94,74618.8,5.23,-2.35,-8.55,0,*7F
1534979043.95,27925,21.94,74622.8,5.23,-2.15,-8.55,0,*7C
1534979045.13,27926,21.94,74622.8,5.25,-2.23,-8.75,0,*7E
1534979046.34,27927,21.88,74614.0,5.23,-2.51,-9.01,0,*7E
1534979047.55,27928,21.94,74620.0,5.23,-2.51,-9.19,0,*78
1534979048.73,27929,21.94,74616.0,5.25,-2.43,-9.19,0,*7C
1534979049.91,27930,21.94,74618.8,5.25,-2.35,-9.31,0,*7F
1534979051.13,27931,21.94,74618.8,5.25,-2.35,-9.45,0,*7D
1534979052.34,27932,21.94,74616.0,5.25,-2.55,-9.71,0,*7F
1534979053.58,27933,21.94,74622.8,5.25,-2.51,-9.83,0,*77
1534979054.8,27934,21.94,74620.5,5.25,-2.51,-10.05,0,*46
1534979056.03,27935,21.94,74620.5,5.25,-2.51,-10.15,0,*46
1534979057.26,27936,21.94,74622.0,5.25,-2.63,-10.35,0,*46
1534979058.48,27937,21.94,74618.8,5.25,-2.59,-10.49,0,*45
1534979059.73,27938,21.94,74620.0,5.25,-2.63,-10.63,0,*4B
1534979060.93,27939,21.94,74622.5,5.25,-2.87,-10.89,0,*44
1534979062.12,27940,21.94,74622.3,5.25,-2.99,-11.19,0,*4D
1534979063.31,27941,21.94,74622.3,5.25,-2.99,-11.19,0,*4C
1534979064.51,27942,21.94,74618.8,5.25,-3.07,-11.19,0,*49
1534979065.72,27943,21.94,74618.8,5.25,-3.11,-11.33,0,*47
1534979066.92,27944,21.94,74618.8,5.23,-3.39,-11.45,0,*4D
1534979068.16,27945,21.94,74618.0,5.25,-3.51,-11.73,0,*41
1534979069.41,27946,21.94,74616.5,5.25,-3.51,-11.63,0,*43
1534979070.66,27947,21.94,74620.3,5.25,-3.51,-11.51,0,*43
1534979071.91,27948,21.94,74618.3,5.25,-3.63,-11.51,0,*4D
1534979073.13,27949,21.94,74616.5,5.25,-3.75,-11.59,0,*43
1534979074.36,27950,21.94,74618.3,5.25,-3.83,-11.51,0,*4A
1534979075.61,27951,21.94,74616.3,5.25,-4.01,-11.59,0,*4E
1534979076.83,27952,21.94,74616.5,5.25,-4.09,-11.51,0,*4D
1534979078.05,27953,21.94,74616.5,5.25,-4.17,-11.73,0,*43
1534979079.27,27954,21.94,74614.0,5.25,-4.29,-11.59,0,*41
1534979080.49,27955,21.94,74616.3,5.25,-4.41,-11.67,0,*43
1534979081.71,27956,21.94,74614.8,5.23,-4.57,-11.67,0,*41
1534979082.93,27957,21.94,74614.3,5.25,-4.65,-11.73,0,*42
1534979084.14,27958,21.94,74614.3,5.23,-4.65,-11.55,0,*4F
1534979085.36,27959,21.94,74614.0,5.23,-4.65,-11.55,0,*4E
1534979086.59,27960,21.88,74612.8,5.23,-4.69,-11.51,0,*4C
1534979087.78,27961,21.94,74614.0,5.25,-4.61,-11.23,0,*46
1534979089.02,27962,21.94,74612.8,5.23,-4.73,-11.33,0,*41
1534979090.25,27963,21.94,74610.3,5.25,-4.93,-11.51,0,*4C
1534979091.49,27964,21.94,74610.0,5.23,-5.11,-11.51,0,*46
1534979092.73,27965,21.88,74610.0,5.23,-5.31,-11.51,0,*45
1534979093.97,27966,21.94,74610.3,5.25,-5.27,-11.37,0,*47
1534979095.21,27967,21.94,74612.0,5.23,-5.31,-11.29,0,*48
1534979096.43,27968,21.94,74612.8,5.23,-5.31,-11.11,0,*4C
1534979097.65,27969,21.94,74612.3,5.23,-5.31,-10.85,0,*41
1534979098.9,27970,21.88,74610.8,5.25,-5.23,-10.67,0,*40
1534979100.12,27971,21.94,74612.8,5.23,-5.23,-10.57,0,*44
1534979101.34,27972,21.94,74614.8,5.23,-5.11,-10.31,0,*46
1534979102.56,27973,21.94,74612.5,5.23,-5.19,-10.19,0,*45
1534979103.8,27974,21.94,74612.0,5.21,-5.11,-10.09,0,*49
1534979105.03,27975,21.94,74614.0,5.21,-5.11,-9.89,0,*78
1534979106.26,27976,21.88,74614.0,5.23,-4.89,-9.83,0,*73
1534979107.5,27977,21.94,74614.8,5.23,-4.89,-9.83,0,*72
1534979108.71,27978,21.94,74612.3,5.25,-4.89,-9.67,0,*71
1534979109.94,27979,21.88,74612.8,5.23,-4.89,-9.57,0,*75
1534979111.14,27980,21.88,74614.0,5.23,-4.77,-9.31,0,*72
1534979112.32,27981,21.94,74616.3,5.23,-4.57,-9.19,0,*7B
1534979113.51,27982,21.94,74618.8,5.23,-4.53,-9.05,0,*71
1534979114.69,27983,21.94,74614.3,5.23,-4.41,-9.01,0,*77
1534979115.88,27984,21.88,74614.0,5.25,-4.37,-9.01,0,*77
1534979117.07,27985,21.94,74618.0,5.25,-4.37,-9.01,0,*76
1534979118.26,27986,21.94,74616.0,5.25,-4.25,-8.89,0,*77
1534979119.45,27987,21.88,74614.8,5.25,-4.05,-8.55,0,*75
1534979120.66,27988,21.94,74614.8,5.25,-3.87,-8.51,0,*73
1534979121.86,27989,21.94,74614.5,5.25,-3.83,-8.37,0,*76
1534979123.07,27990,21.94,74618.8,5.25,-3.71,-8.33,0,*77
1534979124.28,27991,21.94,74618.3,5.23,-3.67,-8.41,0,*72
1534979125.5,27992,21.94,74620.0,5.23,-3.63,-8.37,0,*74
1534979126.71,27993,21.88,74614.0,5.25,-3.47,-8.29,0,*7A
1534979127.91,27994,21.88,74614.8,5.25,-3.27,-8.21,0,*73
1534979129.09,27995,21.94,74616.0,5.25,-3.19,-8.17,0,*7A
1534979130.28,27996,21.94,74616.5,5.25,-3.11,-8.17,0,*71
1534979131.5,27997,21.94,74618.0,5.25,-2.95,-8.03,0,*78
1534979132.72,27998,21.94,74618.8,5.25,-2.95,-8.07,0,*73
1534979133.96,27999,21.94,74622.3,5.31,-2.79,-7.99,0,*7D
1534979135.17,28000,21.88,74618.0,5.29,-2.59,-7.87,0,*7F
1534979136.38,28001,21.88,74616.3,5.29,-2.55,-7.87,0,*72
1534979137.6,28002,21.88,74618.3,5.29,-2.47,-7.87,0,*72
1534979138.81,28003,21.94,74620.0,5.29,-2.19,-7.65,0,*74
1534979140.02,28004,21.88,74616.0,5.29,-2.15,-7.77,0,*7C
1534979141.26,28005,21.94,74620.5,5.29,-2.07,-7.73,0,*7A
1534979142.5,28006,21.94,74620.8,5.29,-1.83,-7.77,0,*72
1534979143.71,28007,21.88,74618.0,5.29,-1.83,-7.87,0,*7C
1534979144.93,28008,21.94,74622.5,5.29,-1.63,-7.73,0,*76
1534979146.16,28009,21.88,74620.0,5.31,-1.63,-7.91,0,*72
1534979147.36,28010,21.94,74620.5,5.29,-1.63,-8.03,0,*77
1534979148.59,28011,21.88,74616.8,5.31,-1.51,-8.03,0,*7E
1534979149.81,28012,21.88,74618.3,5.29,-1.29,-7.91,0,*7F
1534979151.02,28013,21.88,74618.3,5.31,-1.33,-8.17,0,*7D
1534979152.23,28014,21.88,74616.8,5.29,-1.39,-8.33,0,*7F
1534979153.41,28015,21.94,74622.3,5.29,-1.29,-8.33,0,*7F
1534979154.62,28016,21.94,74618.3,5.31,-1.33,-8.59,0,*72
1534979155.83,28017,21.94,74618.3,5.29,-1.39,-8.67,0,*7D
1534979157.09,28018,21.88,74616.0,5.31,-1.39,-8.81,0,*73
1534979158.33,28019,21.88,74620.8,5.31,-1.43,-8.93,0,*7C
1534979159.52,28020,21.88,74618.0,5.33,-1.29,-8.93,0,*78
1534979160.76,28021,21.94,74622.3,5.31,-1.39,-8.97,0,*7E
1534979161.98,28022,21.88,74618.5,5.31,-1.17,-8.85,0,*72
1534979163.22,28023,21.94,74620.0,5.31,-1.33,-9.11,0,*79
1534979164.43,28024,21.94,74622.8,5.31,-1.51,-9.27,0,*7F
1534979165.67,28025,21.88,74616.5,5.31,-1.63,-9.41,0,*7F
1534979166.9,28026,21.94,74620.3,5.31,-1.63,-9.49,0,*74
1534979168.14,28027,21.88,74622.3,5.31,-1.63,-9.41,0,*7D
1534979169.37,28028,21.88,74618.3,5.31,-1.51,-9.41,0,*73
1534979170.61,28029,21.94,74620.0,5.31,-1.71,-9.49,0,*78
1534979171.82,28030,21.88,74618.3,5.33,-1.75,-9.57,0,*79
1534979173.05,28031,21.94,74622.3,5.33,-1.91,-9.57,0,*72
1534979174.29,28032,21.94,74618.8,5.33,-1.99,-9.61,0,*7C
1534979175.53,28033,21.88,74618.0,5.33,-2.11,-9.61,0,*7E
1534979176.71,28034,21.94,74618.0,5.33,-2.35,-9.75,0,*7A
1534979177.9,28035,21.94,74616.0,5.33,-2.43,-9.89,0,*79
1534979179.11,28036,21.94,74616.5,5.33,-2.43,-9.83,0,*70
1534979180.34,28037,21.94,74620.0,5.33,-2.51,-9.83,0,*72
1534979181.56,28038,21.88,74618.3,5.33,-2.67,-10.01,0,*4A
1534979182.79,28039,21.88,74614.8,5.33,-2.75,-10.01,0,*48
1534979183.98,28040,21.88,74614.3,5.33,-2.87,-10.01,0,*4B
1534979185.18,28041,21.94,74616.0,5.33,-2.87,-10.01,0,*4A
1534979186.38,28042,21.88,74616.0,5.33,-2.99,-10.01,0,*46
1534979187.58,28043,21.94,74618.0,5.33,-2.99,-10.01,0,*47
1534979188.78,28044,21.88,74616.3,5.33,-3.15,-10.19,0,*4C
1534979189.98,28045,21.94,74620.0,5.33,-3.19,-10.27,0,*4C
1534979191.17,28046,21.94,74616.5,5.33,-3.19,-10.19,0,*42
1534979192.4,28047,21.88,74618.5,5.31,-3.31,-10.45,0,*42
1534979193.6,28048,21.88,74614.3,5.33,-3.39,-10.27,0,*43
1534979194.8,28049,21.94,74616.8,5.33,-3.31,-10.27,0,*4A
1534979196.02,28050,21.94,74618.8,5.33,-3.43,-10.31,0,*40
1534979197.27,28051,21.94,74618.0,5.33,-3.51,-10.41,0,*45
1534979198.49,28052,21.88,74612.5,5.33,-3.67,-10.45,0,*47
1534979199.69,28053,21.94,74614.8,5.33,-3.75,-10.53,0,*42
1534979200.9,28054,21.88,74616.3,5.29,-3.79,-10.45,0,*45
1534979202.14,28055,21.94,74616.0,5.31,-3.71,-10.23,0,*45
1534979203.35,28056,21.94,74614.0,5.33,-3.75,-10.27,0,*44
1534979204.57,28057,21.88,74612.8,5.33,-3.67,-10.15,0,*47
1534979205.77,28058,21.88,74614.5,5.33,-3.87,-10.19,0,*4A
1534979206.98,28059,21.88,74610.0,5.33,-3.67,-9.97,0,*7B
1534979208.22,28060,21.94,74612.0,5.31,-3.67,-9.89,0,*7C
1534979209.45,28061,21.88,74612.8,5.31,-3.83,-10.01,0,*4F
1534979210.69,28062,21.88,74610.8,5.31,-3.71,-9.79,0,*76
1534979211.91,28063,21.94,74612.0,5.29,-3.59,-9.75,0,*78
1534979213.15,28064,21.88,74610.0,5.31,-3.47,-9.67,0,*7A
1534979214.36,28065,21.88,74614.8,5.33,-3.55,-9.71,0,*7D
1534979215.6,28066,21.94,74612.8,5.33,-3.51,-9.61,0,*7B
1534979216.81,28067,21.88,74612.8,5.33,-3.31,-9.57,0,*79
1534979217.99,28068,21.88,74612.5,5.33,-3.11,-9.31,0,*74
1534979219.21,28069,21.88,74610.5,5.33,-3.19,-9.49,0,*72
1534979220.42,28070,21.88,74610.8,5.33,-3.27,-9.61,0,*7D
1534979221.63,28071,21.94,74612.0,5.33,-3.19,-9.61,0,*71
1534979222.87,28072,21.88,74614.0,5.35,-3.19,-9.61,0,*74
1534979224.08,28073,21.88,74612.5,5.33,-3.19,-9.57,0,*76
1534979225.29,28074,21.88,74612.8,5.33,-3.11,-9.57,0,*79
1534979226.53,28075,21.94,74614.5,5.31,-3.03,-9.49,0,*76
1534979227.76,28076,21.94,74614.5,5.31,-3.07,-9.61,0,*7B
1534979228.98,28077,21.88,74614.3,5.31,-3.19,-9.67,0,*73
1534979230.17,28078,21.94,74614.0,5.33,-3.15,-9.75,0,*71
1534979231.36,28079,21.94,74614.3,5.33,-3.19,-9.71,0,*78
1534979232.55,28080,21.88,74612.5,5.33,-3.27,-9.75,0,*77
1534979233.74,28081,21.88,74614.0,5.33,-3.19,-9.71,0,*7F
1534979234.95,28082,21.88,74614.8,5.31,-3.07,-9.75,0,*75
1534979236.17,28083,21.88,74616.3,5.31,-3.15,-9.67,0,*74
1534979237.39,28084,21.94,74618.8,5.31,-3.15,-9.75,0,*70
1534979238.6,28085,21.94,74618.3,5.31,-3.23,-9.79,0,*78
1534979239.81,28086,21.88,74618.8,5.31,-3.23,-9.89,0,*74
1534979240.99,28087,21.88,74616.3,5.29,-3.23,-9.89,0,*7C
1534979242.2,28088,21.88,74616.0,5.31,-3.23,-9.79,0,*75
1534979243.41,28089,21.88,74616.0,5.31,-3.19,-9.75,0,*71
1534979244.65,28090,21.88,74618.0,5.31,-3.07,-9.61,0,*73
1534979245.89,28091,21.88,74618.3,5.31,-3.07,-9.61,0,*72
1534979247.07,28092,21.88,74616.3,5.29,-3.23,-9.75,0,*7B
1534979248.28,28093,21.94,74620.5,5.31,-3.23,-9.75,0,*73
1534979249.5,28094,21.94,74620.3,5.31,-3.19,-9.75,0,*7D
1534979250.71,28095,21.94,74618.3,5.31,-3.15,-9.75,0,*70
1534979251.93,28096,21.88,74614.3,5.31,-3.07,-9.75,0,*70
1534979253.15,28097,21.88,74618.8,5.31,-2.95,-9.67,0,*78
1534979254.38,28098,21.88,74616.0,5.31,-2.79,-9.61,0,*73
1534979255.65,28099,21.94,74620.0,5.31,-2.55,-9.37,0,*7F
1534979256.91,28100,21.88,74618.3,5.31,-2.67,-9.53,0,*7D
1534979258.13,28101,21.88,74618.5,5.29,-2.71,-9.67,0,*75
1534979259.37,28102,21.88,74618.8,5.31,-2.71,-9.79,0,*70
1534979260.6,28103,21.88,74618.3,5.31,-2.59,-9.75,0,*77
1534979261.84,28104,21.88,74616.5,5.31,-2.67,-9.75,0,*7D
1534979263.08,28105,21.88,74618.5,5.31,-2.67,-10.01,0,*47
1534979264.29,28106,21.88,74618.0,5.33,-2.43,-9.83,0,*72
1534979265.52,28107,21.88,74618.3,5.33,-2.55,-10.15,0,*43
1534979266.74,28108,21.94,74620.8,5.33,-2.63,-10.19,0,*45
1534979268.02,28109,21.88,74616.8,5.35,-2.67,-10.41,0,*4B
1534979269.27,28110,21.88,74616.0,5.33,-2.63,-10.41,0,*41
1534979270.52,28111,21.88,74616.8,5.33,-2.63,-10.41,0,*40
1534979271.77,28112,21.88,74616.5,5.33,-2.67,-10.41,0,*47
1534979272.99,28113,21.88,74614.0,5.33,-2.91,-10.67,0,*4B
1534979274.21,28114,21.88,74614.3,5.33,-2.91,-10.67,0,*4C
1534979275.43,28115,21.88,74616.3,5.33,-2.87,-10.67,0,*4A
1534979276.62,28116,21.88,74614.8,5.33,-3.15,-11.01,0,*42
1534979277.82,28117,21.88,74614.0,5.33,-3.15,-10.97,0,*4D
1534979279.02,28118,21.88,74612.3,5.33,-3.27,-11.15,0,*48
1534979280.21,28119,21.88,74616.5,5.33,-3.39,-11.15,0,*46
1534979281.41,28120,21.88,74612.8,5.33,-3.39,-11.11,0,*48
1534979282.63,28121,21.88,74614.5,5.33,-3.63,-11.41,0,*43
1534979283.85,28122,21.88,74612.0,5.33,-3.67,-11.41,0,*44
1534979285.07,28123,21.94,74612.3,5.33,-3.75,-11.29,0,*48
1534979286.3,28124,21.88,74614.0,5.33,-3.79,-11.37,0,*4C
1534979287.52,28125,21.88,74612.3,5.33,-3.87,-11.29,0,*43
1534979288.76,28126,21.88,74614.8,5.35,-4.09,-11.51,0,*48
1534979289.98,28127,21.88,74612.5,5.33,-4.05,-11.29,0,*4C
1534979291.2,28128,21.88,74612.3,5.33,-4.05,-11.29,0,*43
1534979292.42,28129,21.88,74612.3,5.33,-4.09,-11.29,0,*4E
1534979293.64,28130,21.94,74614.3,5.33,-4.21,-11.37,0,*43
1534979294.85,28131,21.88,74610.5,5.35,-4.45,-11.41,0,*47
1534979296.11,28132,21.88,74608.3,5.35,-4.57,-11.63,0,*47
1534979297.35,28133,21.94,74612.0,5.33,-4.69,-11.63,0,*4D
1534979298.58,28134,21.88,74610.3,5.33,-4.77,-11.63,0,*45
1534979299.83,28135,21.88,74610.8,5.33,-4.81,-11.63,0,*4D
1534979301.07,28136,21.88,74614.8,5.33,-4.85,-11.63,0,*4A
1534979302.3,28137,21.88,74614.0,5.33,-4.85,-11.63,0,*4B
1534979303.55,28138,21.94,74612.3,5.33,-5.07,-11.55,0,*4A
1534979304.79,28139,21.88,74608.5,5.33,-5.19,-11.55,0,*44
1534979306.04,28140,21.88,74612.5,5.33,-5.19,-11.63,0,*4F